Regional Weather Roundup
Issued by NWS

Home | Current Version | Previous Version | Graphics & Text | Print | Product List | Glossary On
Versions: 1 2 3 4 5 6 7 8 9 10 11 12 13 14 15 16 17 18 19 20 21 22 23 24 25 26 27 28 29 30 31 32 33 34 35 36 37 38 39 40 41 42 43 44 45 46 47 48 49 50
000
ASUS43 KFSD 280410
RWRSD

WEATHER ROUNDUP FOR SOUTH DAKOTA
NATIONAL WEATHER SERVICE SIOUX FALLS SD
1100 PM CDT WED MAY 27 2015

NOTE: "FAIR" INDICATES FEW OR NO CLOUDS BELOW 12,000 FEET WITH NO
SIGNIFICANT WEATHER AND/OR OBSTRUCTIONS TO VISIBILITY.


SDZ001>005-009-010-012>017-280500-
NORTHWEST AND NORTH CENTRAL SOUTH DAKOTA

CITY           SKY/WX    TMP DP  RH WIND       PRES   REMARKS
BUFFALO          N/A     56  54  93 NE7       29.90R
FAITH            N/A     58  53  84 SE14      29.93R
MOBRIDGE       LGT RAIN  63  60  90 SE16      29.93S
$$

SDZ012>016-024>037-041>051-057-063-072>074-280500-
SOUTHWEST AND SOUTH CENTRAL SOUTH DAKOTA

CITY           SKY/WX    TMP DP  RH WIND       PRES   REMARKS
RAPID CTY ARPT CLEAR     61  52  72 W5        29.93R
PIERRE         LGT RAIN  61  59  93 E7        29.95S
CUSTER         PTCLDY    53  47  79 S3        30.04R
PHILIP         PTCLDY    61  58  90 SE7       29.92R
PINE RIDGE     PTCLDY    62  53  72 S18       29.97R
SPEARFISH      FAIR      54  54 100 CALM      29.99S
WINNER         FAIR      70  52  52 S14       29.97R
$$

SDZ004>011-016>023-039-040-280500-
NORTHEAST SOUTH DAKOTA

CITY           SKY/WX    TMP DP  RH WIND       PRES   REMARKS
ABERDEEN       CLOUDY    65  57  75 SE8       29.96S
WATERTOWN      MOCLDY    70  51  51 CALM      30.01S
BROOKINGS      MOCLDY    68  52  56 CALM      30.03R
SISSETON         N/A     67  56  67 W5        29.98R
$$

SDZ017-020-022-023-036>040-048>070-280500-
SOUTHEAST SOUTH DAKOTA

CITY           SKY/WX    TMP DP  RH WIND       PRES   REMARKS
SIOUX FALLS    PTCLDY    67  51  56 S7        30.02R
HURON            N/A    N/A N/A N/A MISG      29.97R
CHAMBERLAIN    CLOUDY    64  52  64 S9        29.97R
MITCHELL       MOCLDY    67  55  65 SE7       29.99R
YANKTON        PTCLDY    72  46  40 S12       30.01R
$$

ABBREVIATIONS USED IN REMARKS
   TC - TEMPERATURE IN CELSIUS
  WCI - WIND CHILL INDEX
   HX - HEAT INDEX
  VSB - VISIBILITY



USA.gov is the U.S. government's official web portal to all federal, state and local government web resources and services.